Tracking 30107 objects as of 18-Jan-2025
HD Live streaming from Space Station
objects crossing your sky now

ONEWEB-0595

Track ONEWEB-0595 now!
10-day predictions
ONEWEB-0595 is classified as:


NORAD ID: 54661
Int'l Code: 2022-166V
Perigee: 1,183.4 km
Apogee: 1,186.3 km
Inclination: 87.9 °
Period: 108.9 minutes
Semi major axis: 7555 km
RCS: Unknown
Launch date: December 8, 2022
Source: United Kingdom (UK)
Launch site: AIR FORCE EASTERN TEST RANGE (AFETR)
Your satellite tracking list
Your tracking list is empty




NASA's NSSDC Master Catalog

Two Line Element Set (TLE):
1 54661U 22166V   25017.91539140  .00000083  00000-0  16922-3 0  9990
2 54661  87.9321 346.6400 0001901  86.7625 273.3726 13.21828370103933
Source of the keplerian elements: AFSPC